Home   Weather   Santa Rosa   Past weeks

Flag for USA Past Weather in Santa Rosa, California, USA — Yesterday and Last 2 Weeks

Now
51 °F

Partly sunny.


Feels Like: 50 °F
Forecast: 42 / 52 °F
Wind: 5 mph from Southeast

Location: Santa Rosa Sonoma County Airport

Current Time: Jan 22, 2017 at 10:34:56 am

Latest Report: Jan 22, 2017 at 9:53 am


Visibility: 10 mi

Pressure: 29.73 "Hg

Humidity: 86%

Dew Point: 47 °F

Location of Santa RosaLocation

Past Weather in Santa Rosa — Graph

°F

Santa Rosa Temperature Yesterday

Maximum temperature yesterday: 54 °F (at 11:53 am)
Minimum temperature yesterday: 45 °F (at 12:53 am)
Average temperature yesterday: 48 °F

High & Low Weather Summary for the Past Weeks

 TemperatureHumidityPressure
High60 °F (Jan 8, 11:53 am)100% (Jan 7, 9:00 am)30.24 "Hg (Jan 7, 9:00 am)
Low33 °F (Jan 14, 6:05 am)56% (Jan 13, 3:53 pm)29.24 "Hg (Jan 20, 1:53 pm)
Average47 °F93%29.91 "Hg
* Reported Jan 7 9:00 am — Jan 22 8:53 am, Santa Rosa, Weather by CustomWeather, © 2017

Note: Actual official high and low records may vary slightly from our data, if they occured in-between our weather recording intervals... More about our weather records

Advertising

Santa Rosa Weather History for the Previous 24 Hours

Scroll right to see more
 ConditionsComfort  
Time TempWeatherWind HumidityBarometerVisibility
8:53 am
Sun, Jan 22
48 °FScattered clouds.3 mph96%29.71 "Hg10 mi
7:53 am43 °FSunny.7 mph100%29.68 "Hg7 mi
6:53 am48 °FPartly cloudy.No wind93%29.66 "Hg10 mi
5:53 am49 °FLight rain. Overcast.6 mph97%29.62 "Hg9 mi
5:16 am49 °FLight rain. Mostly cloudy.5 mph97%29.63 "Hg8 mi
5:00 am49 °FLight rain. Fog.5 mph97%29.63 "Hg6 mi
4:25 am49 °FLight rain. Fog.3 mph97%29.61 "Hg6 mi
3:53 am50 °FLight rain. Mostly cloudy.7 mph89%29.59 "Hg9 mi
3:34 am47 °FHeavy rain. Fog.13 mph100%29.61 "Hg3 mi
2:53 am47 °FHeavy rain. Fog.23 mph100%29.55 "Hg2 mi
2:36 am47 °FHeavy rain. Fog.22 mph97%29.58 "Hg2 mi
1:53 am47 °FRain. Fog.17 mph97%29.59 "Hg2 mi
12:53 am47 °FRain. Fog.15 mph93%29.64 "Hg4 mi
11:53 pm
Sat, Jan 21
47 °FRain. Fog.15 mph93%29.69 "Hg6 mi
10:53 pm47 °FLight rain. Overcast.14 mph90%29.72 "Hg7 mi
9:53 pm47 °FLight rain. Overcast.14 mph93%29.75 "Hg8 mi
8:53 pm47 °FRain. Overcast.18 mph93%29.78 "Hg7 mi
8:00 pm48 °FRain. Overcast.14 mph93%29.81 "Hg7 mi
6:53 pm48 °FLight rain. Fog.12 mph93%29.79 "Hg5 mi
5:57 pm48 °FLight rain. Overcast.6 mph93%29.82 "Hg9 mi
5:53 pm48 °FLight rain. Mostly cloudy.6 mph93%29.80 "Hg9 mi
4:53 pm50 °FRain. Mostly cloudy.14 mph80%29.80 "Hg5 mi
3:53 pm52 °FMostly cloudy.8 mph77%29.80 "Hg10 mi
2:53 pm53 °FMostly cloudy.9 mph77%29.79 "Hg10 mi
1:53 pm52 °FBroken clouds.6 mph89%29.79 "Hg10 mi
12:53 pm53 °FLight rain. Broken clouds.9 mph74%29.78 "Hg10 mi
11:53 am54 °FBroken clouds.9 mph74%29.77 "Hg10 mi
10:53 am52 °FScattered clouds.5 mph83%29.77 "Hg10 mi
Weather by CustomWeather, © 2017

See weather overviewHow to use our weather pages